This demonstration page uses our WeatherBlox Daily Observations layout. Learn more.

Left ArrowRight Arrow

Hourly Observations for August 22, 2018

Temp ( °F °C ) Dew Point ( °F °C ) Humidity (%) Winds ( mph kmh ) Pressure ( in mb ) Visibility ( mi km ) Precip ( " mm )
12:16 am 00:16 Clear 66 19 66 19 100 100 NW 8 13 30 1016 10 16.0934 N/A
12:36 am 00:36 Clear 66 19 66 19 100 100 NNW 7 11 30 1016 10 16.0934 N/A
12:57 am 00:57 Clear 66 19 66 19 100 100 NW 7 11 30 1016 10 16.0934 N/A
1:16 am 01:16 Clear 66 19 66 19 100 100 NW 6 9 30 1016 10 16.0934 N/A
1:36 am 01:36 Clear 66 19 66 19 100 100 NW 5 7 30 1016 7 11.26538 N/A
1:57 am 01:57 Clear 64 18 64 18 100 100 NW 7 11 30 1016 7 11.26538 N/A
2:16 am 02:16 Clear 64 18 64 18 100 100 NW 6 9 30 1016 7 11.26538 N/A
2:37 am 02:37 Clear 64 18 64 18 100 100 NNW 7 11 30 1016 7 11.26538 N/A
2:57 am 02:57 Clear 64 18 64 18 100 100 NW 6 9 30 1016 7 11.26538 N/A
3:16 am 03:16 Clear 64 18 64 18 100 100 NW 3 6 30 1016 7 11.26538 N/A
3:37 am 03:37 Clear 63 17 63 17 100 100 W 3 6 30 1016 7 11.26538 N/A
3:56 am 03:56 Clear 63 17 63 17 100 100 WNW 6 9 30 1016 7 11.26538 N/A
4:17 am 04:17 Clear 63 17 63 17 100 100 WNW 5 7 30 1016 7 11.26538 N/A
4:37 am 04:37 Clear 63 17 63 17 100 100 WNW 6 9 30 1016 7 11.26538 N/A
4:56 am 04:56 Partly Cloudy 63 17 63 17 100 100 WNW 5 7 30.03 1017 7 11.26538 N/A
5:17 am 05:17 Partly Cloudy 63 17 63 17 100 100 WNW 3 6 30.03 1017 7 11.26538 N/A
5:36 am 05:36 Partly Cloudy 63 17 63 17 100 100 WNW 5 7 30.03 1017 5 8.0467 N/A
5:57 am 05:57 Partly Cloudy 63 17 63 17 100 100 WNW 5 7 30.03 1017 5 8.0467 N/A
6:16 am 06:16 Mostly Cloudy 64 18 64 18 100 100 NW 6 9 30.03 1017 5 8.0467 N/A
6:36 am 06:36 Mostly Cloudy 64 18 64 18 100 100 NW 9 15 30.03 1017 7 11.26538 N/A
6:57 am 06:57 Cloudy 64 18 64 18 100 100 NNW 8 13 30.06 1018 7 11.26538 N/A
7:16 am 07:16 Cloudy 64 18 64 18 100 100 NNW 8 13 30.06 1018 7 11.26538 N/A
7:36 am 07:36 Cloudy 64 18 64 18 100 100 N 7 11 30.06 1018 7 11.26538 N/A
7:57 am 07:57 Cloudy 64 18 64 18 100 100 N 6 9 30.06 1018 7 11.26538 N/A
8:16 am 08:16 Mostly Cloudy 64 18 64 18 100 100 N 9 15 30.06 1018 7 11.26538 N/A
8:37 am 08:37 Cloudy 64 18 63 17 94 94 N 8 13 30.09 1019 10 16.0934 N/A
8:57 am 08:57 Cloudy 64 18 63 17 94 94 N 7 11 30.09 1019 10 16.0934 N/A
9:16 am 09:16 Cloudy 64 18 63 17 94 94 N 9 15 30.09 1019 10 16.0934 N/A
9:37 am 09:37 Cloudy 64 18 64 18 100 100 N 12 19 30.09 1019 10 16.0934 N/A
9:57 am 09:57 Cloudy 66 19 64 18 94 94 N 9 15 30.09 1019 10 16.0934 N/A
10:16 am 10:16 Partly Cloudy 64 18 61 16 88 88 N 16 26 30.12 1020 10 16.0934 N/A
10:37 am 10:37 Partly Cloudy 66 19 63 17 88 88 N 15 24 30.12 1020 10 16.0934 N/A
10:56 am 10:56 Partly Cloudy 68 20 63 17 83 83 N 15 24 30.12 1020 10 16.0934 N/A
11:17 am 11:17 Partly Cloudy 68 20 61 16 78 78 N 15 24 30.12 1020 10 16.0934 N/A
11:36 am 11:36 Partly Cloudy 70 21 63 17 78 78 N 14 22 30.12 1020 10 16.0934 N/A
11:57 am 11:57 Mostly Cloudy 70 21 63 17 78 78 N 9 15 30.12 1020 10 16.0934 N/A
12:16 pm 12:16 Partly Cloudy 70 21 61 16 73 73 N 15 24 30.12 1020 10 16.0934 N/A
12:37 pm 12:37 Partly Cloudy 72 22 61 16 69 69 N 15 24 30.09 1019 10 16.0934 N/A
12:57 pm 12:57 Partly Cloudy 70 21 61 16 73 73 NNW 10 17 30.15 1021 10 16.0934 N/A
1:16 pm 13:16 Partly Cloudy 72 22 59 15 65 65 N 14 22 30.15 1021 10 16.0934 N/A
1:37 pm 13:37 Sunny 72 22 59 15 65 65 N 14 22 30.15 1021 10 16.0934 N/A
1:56 pm 13:56 Sunny 73 23 61 16 65 65 N 9 15 30.09 1019 10 16.0934 N/A
2:16 pm 14:16 Partly Cloudy 73 23 59 15 61 61 N 10 17 30.09 1019 10 16.0934 N/A
2:37 pm 14:37 Sunny 73 23 59 15 61 61 NNW 9 15 30.09 1019 10 16.0934 N/A
2:56 pm 14:56 Partly Cloudy 73 23 61 16 65 65 NNW 10 17 30.09 1019 10 16.0934 N/A
3:17 pm 15:17 Partly Cloudy 73 23 61 16 65 65 NNW 13 20 30.09 1019 10 16.0934 N/A
3:37 pm 15:37 Partly Cloudy 73 23 59 15 61 61 N 12 19 30.09 1019 10 16.0934 N/A
3:56 pm 15:56 Partly Cloudy 75 24 59 15 57 57 NNW 10 17 30.09 1019 10 16.0934 N/A
4:17 pm 16:17 Partly Cloudy 73 23 61 16 65 65 N 12 19 30.09 1019 10 16.0934 N/A
4:36 pm 16:36 Partly Cloudy 72 22 59 15 65 65 N 7 11 30.09 1019 10 16.0934 N/A
4:56 pm 16:56 Mostly Cloudy 72 22 61 16 69 69 N 12 19 30.09 1019 10 16.0934 N/A
5:17 pm 17:17 Mostly Cloudy 72 22 59 15 65 65 NNW 10 17 30.09 1019 10 16.0934 N/A
5:36 pm 17:36 Partly Cloudy 73 23 59 15 61 61 NW 9 15 30.06 1018 10 16.0934 N/A
5:56 pm 17:56 Sunny 73 23 59 15 61 61 NNW 14 22 30.06 1018 10 16.0934 N/A
6:17 pm 18:17 Partly Cloudy 73 23 59 15 61 61 NNW 13 20 30.09 1019 10 16.0934 N/A
6:36 pm 18:36 Partly Cloudy 73 23 59 15 61 61 NW 14 22 30.06 1018 10 16.0934 N/A
6:57 pm 18:57 Partly Cloudy 73 23 59 15 61 61 N 15 24 30.06 1018 10 16.0934 N/A
7:16 pm 19:16 Partly Cloudy 72 22 57 14 61 61 NNW 14 22 30.09 1019 10 16.0934 N/A
7:37 pm 19:37 Sunny 72 22 57 14 61 61 NNW 7 11 30.09 1019 10 16.0934 N/A
7:57 pm 19:57 Sunny 68 20 57 14 69 69 NNW 8 13 30.12 1020 10 16.0934 N/A
8:16 pm 20:16 Sunny 66 19 57 14 73 73 N 8 13 30.12 1020 10 16.0934 N/A
8:37 pm 20:37 Clear 64 18 57 14 78 78 N 7 11 30.12 1020 10 16.0934 N/A
8:56 pm 20:56 Clear 63 17 57 14 83 83 N 5 7 30.12 1020 10 16.0934 N/A
9:17 pm 21:17 Clear 61 16 59 15 94 94 Calm 30.12 1020 10 16.0934 N/A
9:37 pm 21:37 Clear 59 15 59 15 100 100 Calm 30.15 1021 10 16.0934 N/A
9:56 pm 21:56 Clear 59 15 59 15 100 100 Calm 30.15 1021 10 16.0934 N/A
10:17 pm 22:17 Clear 59 15 59 15 100 100 Calm 30.15 1021 10 16.0934 N/A
10:36 pm 22:36 Clear 57 14 57 14 100 100 Calm 30.15 1021 10 16.0934 N/A
10:57 pm 22:57 Clear 57 14 57 14 100 100 Calm 30.15 1021 10 16.0934 N/A
11:16 pm 23:16 Clear 57 14 57 14 100 100 Calm 30.15 1021 10 16.0934 N/A
11:36 pm 23:36 Clear 57 14 57 14 100 100 Calm 30.15 1021 10 16.0934 N/A
11:57 pm 23:57 Clear 55 13 55 13 100 100 Calm 30.15 1021 10 16.0934 N/A

Powered by AerisWeather